User: anonymous   Login
Location: Del Oro Observatory
(38.3044°N, 104.8119°W)
Time: 03:55:47
(UTC-07:00)
Language:

Cosmos 1602 Rocket - Orbit

View from above orbital plane
View from above orbital plane
View from above satellite
View from above satellite

Ground track
Ground track

The orbit data is extracted from the following two-line orbital elements,

1 15332U 84105B   15058.55666022  .00000484  00000-0  56572-4 0  9998
2 15332 082.5319 253.6905 0019851 261.4719 150.5081 14.82984917641989
Epoch (UTC): 27 February 2015 13:21:35
Eccentricity: 0.0019851
inclination: 82.5319°
perigee height: 606 km
apogee height: 634 km
right ascension of ascending node: 253.6905°
argument of perigee: 261.4719°
revolutions per day: 14.82984917
mean anomaly at epoch: 150.5081°
orbit number at epoch: 64198

The dashed part of the orbit path shows where the satellite is in the earth's shadow,  

DLR